Location: 22
(39.7117°N, 89.5929°W)
Time: 10:09:32
(UTC-05:00)

Transit 2A - Pass Details

Date: 09 August 2024
Orbit: 590 x 961 km, 66.7° (Epoch: 13 September)

Event Time Altitude Azimuth Distance (km) Brightness Sun altitude
Rises 12:58:21 0° 333° (NNW) 3,646 9.3 65.8°
Reaches altitude 10° 13:00:59 10° 337° (NNW) 2,702 8.7 65.8°
Maximum altitude 13:07:18 61° 57° (ENE) 1,071 7.6 65.8°
Drops below altitude 10° 13:13:21 10° 138° (SE) 2,593 9.1 65.7°
Sets 13:15:49 0° 141° (SE) 3,489 9.6 65.7°
